START_TIME,STEP,MOV.,M15,t_acc.,M20,t_acc.
1979-07-12 00:01:08.310 ,1,1,0.,24.0,0.,24.0
1979-07-12 00:01:32.310 ,1,0,0.,24.0,0.,24.0
1979-07-12 00:01:56.310 ,2,1,0.,24.0,0.,24.0
1979-07-12 00:02:20.310 ,2,0,0.,24.0,0.,24.0
1979-07-12 00:02:44.310 ,3,1,0.,24.0,0.,24.0
1979-07-12 00:03:08.310 ,3,0,0.,24.0,0.,24.0
1979-07-12 00:03:32.310 ,4,1,0.,24.0,0.,24.0
1979-07-12 00:03:56.310 ,4,0,0.,24.0,0.,24.0
1979-07-12 00:04:20.310 ,0,0,,0,,0
1979-07-12 00:04:44.310 ,0,0,0.,24.0,0.,24.0
1979-07-12 00:05:08.910 ,0,0,0.,24.0,0.,24.0
1979-07-12 00:05:32.310 ,0,0,,0,,0
1979-07-12 00:06:44.910 ,0,0,0.,24.0,0.,24.0
1979-07-12 00:07:08.310 ,0,0,0.,24.0,0.,24.0
1979-07-12 00:07:32.910 ,6,1,0.,24.0,0.,24.0
1979-07-12 00:07:56.310 ,0,0,,0,,0
1979-07-12 00:08:20.310 ,0,0,,0,,0
1979-07-12 00:08:44.310 ,0,0,,0,,0
1979-07-12 00:09:56.310 ,0,0,0.,24.0,0.,24.0
1979-07-12 00:10:20.310 ,0,0,0.,24.0,0.,24.0
1979-07-12 00:10:46.710 ,0,0,,0,,0
1979-07-12 00:11:08.310 ,0,0,,0,,0
1979-07-12 00:12:20.910 ,0,0,,0,,0
1979-07-12 00:12:44.310 ,0,0,,0,,0
1979-07-12 00:13:08.310 ,0,0,,0,,0
1979-07-12 00:13:32.310 ,0,0,,0,,0
1979-07-12 00:13:56.310 ,0,0,,0,,0
1979-07-12 00:14:20.310 ,0,0,,0,,0
1979-07-12 00:14:44.310 ,0,0,0.,24.0,0.,24.0
1979-07-12 00:15:08.310 ,0,0,,0,,0
1979-07-12 00:15:32.910 ,0,0,0.,24.0,0.,24.0
1979-07-12 00:15:56.310 ,0,0,,0,,0
1979-07-12 00:16:20.310 ,0,0,0.,24.0,0.,24.0
1979-07-12 00:16:44.310 ,0,0,,0,,0
1979-07-12 00:17:08.310 ,0,0,,0,,0
1979-07-12 00:17:32.310 ,0,0,,0,,0
1979-07-12 00:17:56.310 ,0,0,,0,,0
1979-07-12 00:18:20.310 ,0,0,,0,,0
1979-07-12 00:18:44.310 ,0,0,0.,24.0,0.,24.0
1979-07-12 00:19:08.310 ,0,0,,0,,0
1979-07-12 00:19:32.310 ,0,0,,0,,0
1979-07-12 00:19:56.310 ,0,0,0.,24.0,0.,24.0
1979-07-12 00:20:20.910 ,0,0,0.,24.0,0.,24.0
1979-07-12 00:20:44.310 ,0,0,,0,,0
1979-07-12 00:21:08.310 ,0,0,,0,,0
1979-07-12 00:21:32.310 ,0,0,0.,24.0,0.,24.0
1979-07-12 00:21:56.910 ,0,0,0.,24.0,0.,24.0
1979-07-12 00:22:20.310 ,7,1,0.,24.0,0.,24.0
1979-07-12 00:22:44.310 ,0,0,0.,24.0,0.,24.0
1979-07-12 00:23:08.310 ,0,1,0.,24.0,0.,24.0
1979-07-12 00:23:32.310 ,4,1,0.,24.0,0.,24.0
1979-07-12 00:23:56.310 ,7,1,0.,24.0,0.,24.0
1979-07-12 00:24:20.310 ,3,1,0.,24.0,0.,24.0
1979-07-12 00:24:44.310 ,0,1,0.,24.0,0.,24.0
1979-07-12 00:25:08.310 ,4,1,0.,24.0,0.,24.0
1979-07-12 00:25:32.310 ,7,1,0.,24.0,0.,24.0
1979-07-12 00:25:56.310 ,3,1,0.,24.0,0.,24.0
1979-07-12 00:26:20.310 ,0,1,0.,24.0,0.,24.0
1979-07-12 00:26:44.310 ,4,1,0.,24.0,0.,24.0
1979-07-12 00:27:08.310 ,7,1,0.,24.0,0.,24.0
1979-07-12 00:27:32.310 ,3,1,0.,24.0,0.,24.0
1979-07-12 00:27:56.310 ,0,1,0.,24.0,0.,24.0
1979-07-12 00:28:20.310 ,4,1,0.,24.0,0.,24.0
1979-07-12 00:28:44.310 ,7,1,0.,24.0,0.,24.0
1979-07-12 00:29:08.310 ,3,1,0.,24.0,0.,24.0
1979-07-12 00:29:32.310 ,0,1,0.,24.0,0.,24.0
1979-07-12 00:29:56.310 ,0,0,0.,24.0,0.,24.0
1979-07-12 00:30:20.310 ,0,0,0.,24.0,0.,24.0
1979-07-12 00:30:44.310 ,5,1,0.,24.0,0.,24.0
1979-07-12 00:31:08.310 ,5,0,0.,24.0,0.,24.0
1979-07-12 00:31:32.310 ,4,1,0.,24.0,0.,24.0
1979-07-12 00:31:56.310 ,4,0,0.,24.0,0.,24.0
1979-07-12 00:32:20.310 ,3,1,0.,24.0,0.,24.0
1979-07-12 00:32:44.310 ,3,0,0.,24.0,0.,24.0
1979-07-12 00:33:08.310 ,2,1,0.,24.0,0.,24.0
1979-07-12 00:33:32.310 ,2,0,0.,24.0,0.,24.0
1979-07-12 00:33:56.310 ,1,1,0.,24.0,0.,24.0
1979-07-12 00:34:20.310 ,1,0,0.,24.0,0.,24.0
1979-07-12 00:34:44.310 ,0,1,0.,24.0,0.,24.0
1979-07-12 00:35:08.310 ,0,0,0.,24.0,0.,24.0
1979-07-12 00:35:32.310 ,0,1,0.,24.0,0.,24.0
1979-07-12 00:35:56.310 ,0,0,0.,24.0,0.,24.0
1979-07-12 00:36:20.310 ,1,1,0.,24.0,0.,24.0
1979-07-12 00:36:44.310 ,1,0,0.,24.0,0.,24.0
1979-07-12 00:37:08.310 ,2,1,0.,24.0,0.,24.0
1979-07-12 00:37:32.310 ,2,0,0.,24.0,0.,24.0
1979-07-12 00:37:56.310 ,3,1,0.,24.0,0.,24.0
1979-07-12 00:38:20.310 ,3,0,0.,24.0,0.,24.0
1979-07-12 00:38:44.310 ,4,1,0.,24.0,0.,24.0
1979-07-12 00:39:08.310 ,4,0,0.,24.0,0.,24.0
1979-07-12 00:39:32.310 ,5,1,0.,24.0,0.,24.0
1979-07-12 00:39:56.310 ,5,0,0.,24.0,0.,24.0
1979-07-12 00:40:20.310 ,6,1,0.,24.0,0.,24.0
1979-07-12 00:40:44.310 ,6,0,0.,24.0,0.,24.0
1979-07-12 00:41:08.310 ,7,1,0.,24.0,0.,24.0
1979-07-12 00:41:32.310 ,7,0,0.,24.0,0.,24.0
1979-07-12 00:41:56.310 ,7,1,0.,24.0,0.,24.0
1979-07-12 00:42:20.310 ,7,0,0.,24.0,0.,24.0
1979-07-12 00:42:44.310 ,6,1,0.,24.0,0.,24.0
1979-07-12 00:43:08.310 ,6,0,0.,24.0,0.,24.0
1979-07-12 00:43:32.310 ,5,1,0.,24.0,0.,24.0
1979-07-12 00:43:56.310 ,5,0,0.,24.0,0.,24.0
1979-07-12 00:44:20.310 ,4,1,0.,24.0,0.,24.0
1979-07-12 00:44:44.310 ,4,0,0.,24.0,0.,24.0
1979-07-12 00:45:08.310 ,3,1,0.,24.0,0.,24.0
1979-07-12 00:45:32.310 ,3,0,0.,24.0,0.,24.0
1979-07-12 00:45:56.310 ,2,1,0.,24.0,0.,24.0
1979-07-12 00:46:20.310 ,2,0,0.,24.0,0.,24.0
1979-07-12 00:46:44.310 ,1,1,0.,24.0,0.,24.0
1979-07-12 00:47:08.310 ,1,0,0.,24.0,0.,24.0
1979-07-12 00:47:32.310 ,0,1,0.,24.0,0.,24.0
1979-07-12 00:47:56.310 ,0,0,0.,24.0,0.,24.0
1979-07-12 00:48:20.310 ,0,1,0.,24.0,0.,24.0
1979-07-12 00:48:44.310 ,0,0,0.,24.0,0.,24.0
1979-07-12 00:49:08.310 ,1,1,0.,24.0,0.,24.0
1979-07-12 00:49:32.310 ,1,0,0.,24.0,0.,24.0
1979-07-12 00:49:56.310 ,2,1,0.,24.0,0.,24.0
1979-07-12 00:50:20.310 ,2,0,0.,24.0,0.,24.0
1979-07-12 00:50:44.310 ,3,1,0.,24.0,0.,24.0
1979-07-12 00:51:08.310 ,3,0,0.,24.0,0.,24.0
1979-07-12 00:51:32.310 ,4,1,0.,24.0,0.,24.0
1979-07-12 00:51:56.310 ,4,0,0.,24.0,0.,24.0
1979-07-12 00:52:20.310 ,5,1,0.,24.0,0.,24.0
1979-07-12 00:52:44.310 ,5,0,0.,24.0,0.,24.0
1979-07-12 00:53:08.310 ,6,1,0.,24.0,0.,24.0
1979-07-12 00:53:32.310 ,6,0,0.,24.0,0.,24.0
1979-07-12 00:53:56.310 ,7,1,0.,24.0,0.,24.0
1979-07-12 00:54:20.310 ,7,0,0.,24.0,0.,24.0
1979-07-12 00:54:44.310 ,7,1,0.,24.0,0.,24.0
1979-07-12 00:55:08.310 ,7,0,0.,24.0,0.,24.0
1979-07-12 00:55:32.310 ,6,1,0.,24.0,0.,24.0
1979-07-12 00:55:56.310 ,6,0,0.,24.0,0.,24.0
1979-07-12 00:56:20.310 ,5,1,0.,24.0,0.,24.0
1979-07-12 00:56:44.310 ,5,0,0.,24.0,0.,24.0
1979-07-12 00:57:08.310 ,4,1,0.,24.0,0.,24.0
1979-07-12 00:57:32.310 ,4,0,0.,24.0,0.,24.0
1979-07-12 00:57:56.310 ,3,1,0.,24.0,0.,24.0
1979-07-12 00:58:20.310 ,3,0,0.,24.0,0.,24.0
1979-07-12 00:58:44.310 ,2,1,0.,24.0,0.,24.0
1979-07-12 00:59:08.310 ,2,0,0.,24.0,0.,24.0
1979-07-12 00:59:32.310 ,1,1,0.,24.0,0.,24.0
1979-07-12 00:59:56.310 ,1,0,0.,24.0,0.,24.0
1979-07-12 01:00:20.310 ,0,1,0.,24.0,0.,24.0
1979-07-12 01:00:44.310 ,0,0,0.,24.0,0.,24.0
1979-07-12 01:01:08.310 ,0,1,0.,24.0,0.,24.0
1979-07-12 01:01:32.310 ,0,0,0.,24.0,0.,24.0
1979-07-12 01:01:56.310 ,1,1,0.,24.0,0.,24.0
1979-07-12 01:02:20.310 ,1,0,0.,24.0,0.,24.0
1979-07-12 01:02:44.310 ,2,1,0.,24.0,0.,24.0
1979-07-12 01:03:08.310 ,2,0,0.,24.0,0.,24.0
1979-07-12 01:03:32.310 ,3,1,0.,24.0,0.,24.0
1979-07-12 01:03:56.310 ,3,0,0.,24.0,0.,24.0
1979-07-12 01:04:20.310 ,4,1,0.,24.0,0.,24.0
1979-07-12 01:04:44.310 ,4,0,1.,24.0,0.,24.0
1979-07-12 01:05:08.310 ,5,1,0.,24.0,0.,24.0
1979-07-12 01:05:32.310 ,5,0,0.,24.0,0.,24.0
1979-07-12 01:05:56.310 ,6,1,0.,24.0,0.,24.0
1979-07-12 01:06:20.310 ,6,0,0.,24.0,0.,24.0
1979-07-12 01:07:32.310 ,0,0,0.,24.0,0.,24.0
1979-07-12 01:07:56.310 ,0,1,0.,24.0,0.,24.0
1979-07-12 01:08:20.310 ,4,1,0.,24.0,0.,24.0
1979-07-12 01:08:44.310 ,7,1,0.,24.0,0.,24.0
1979-07-12 01:09:08.310 ,3,1,0.,24.0,0.,24.0
1979-07-12 01:09:32.310 ,0,1,0.,24.0,0.,24.0
1979-07-12 01:09:56.310 ,4,1,0.,24.0,0.,24.0
1979-07-12 01:10:20.310 ,7,1,0.,24.0,0.,24.0
1979-07-12 01:10:44.310 ,3,1,0.,24.0,0.,24.0
1979-07-12 01:11:08.310 ,0,1,0.,24.0,0.,24.0
1979-07-12 01:11:32.310 ,4,1,0.,24.0,0.,24.0
1979-07-12 01:11:56.310 ,7,1,0.,24.0,0.,24.0
1979-07-12 01:12:20.310 ,3,1,0.,24.0,0.,24.0
1979-07-12 01:12:44.310 ,0,1,0.,24.0,0.,24.0
1979-07-12 01:13:08.310 ,4,1,0.,24.0,0.,24.0
1979-07-12 01:13:32.310 ,7,1,0.,24.0,0.,24.0
1979-07-12 01:13:56.310 ,3,1,0.,24.0,0.,24.0
1979-07-12 01:14:20.310 ,0,1,0.,24.0,0.,24.0
1979-07-12 01:14:44.310 ,4,1,0.,24.0,0.,24.0
1979-07-12 01:15:08.310 ,7,1,0.,24.0,0.,24.0
1979-07-12 01:15:32.310 ,3,1,0.,24.0,0.,24.0
1979-07-12 01:15:56.310 ,0,1,0.,24.0,0.,24.0
1979-07-12 01:16:20.310 ,4,1,0.,24.0,0.,24.0
1979-07-12 01:16:44.310 ,7,1,0.,24.0,0.,24.0
1979-07-12 01:17:08.310 ,3,1,0.,24.0,0.,24.0
1979-07-12 01:17:32.310 ,0,1,0.,24.0,0.,24.0
1979-07-12 01:17:56.310 ,0,0,0.,24.0,0.,24.0
1979-07-12 01:18:20.310 ,0,0,0.,24.0,0.,24.0
1979-07-12 01:18:44.310 ,5,1,0.,24.0,0.,24.0
1979-07-12 01:19:08.310 ,5,0,0.,24.0,0.,24.0
1979-07-12 01:19:32.310 ,4,1,0.,24.0,0.,24.0
1979-07-12 01:19:56.310 ,4,0,0.,24.0,0.,24.0
1979-07-12 01:20:20.310 ,3,1,0.,24.0,0.,24.0
1979-07-12 01:20:44.310 ,3,0,0.,24.0,0.,24.0
1979-07-12 01:21:08.310 ,2,1,0.,24.0,0.,24.0
1979-07-12 01:21:32.310 ,2,0,0.,24.0,0.,24.0
1979-07-12 01:21:56.310 ,1,1,0.,24.0,0.,24.0
1979-07-12 01:22:20.310 ,1,0,0.,24.0,0.,24.0
1979-07-12 01:22:44.310 ,0,1,0.,24.0,0.,24.0
1979-07-12 01:23:08.310 ,0,0,0.,24.0,0.,24.0
1979-07-12 01:23:32.310 ,0,1,0.,24.0,0.,24.0
1979-07-12 01:23:56.310 ,0,0,0.,24.0,0.,24.0
1979-07-12 01:24:20.310 ,1,1,0.,24.0,0.,24.0
1979-07-12 01:24:44.310 ,1,0,0.,24.0,0.,24.0
1979-07-12 01:25:08.310 ,2,1,0.,24.0,0.,24.0
1979-07-12 01:25:32.310 ,2,0,0.,24.0,0.,24.0
1979-07-12 01:25:56.310 ,3,1,0.,24.0,0.,24.0
1979-07-12 01:26:20.310 ,3,0,0.,24.0,0.,24.0
1979-07-12 01:26:44.310 ,4,1,0.,24.0,0.,24.0
1979-07-12 01:27:08.310 ,4,0,0.,24.0,0.,24.0
1979-07-12 01:27:32.310 ,5,1,0.,24.0,0.,24.0
1979-07-12 01:27:56.310 ,5,0,0.,24.0,0.,24.0
1979-07-12 01:28:20.310 ,6,1,0.,24.0,0.,24.0
1979-07-12 01:28:44.310 ,6,0,0.,24.0,0.,24.0
1979-07-12 01:29:08.310 ,7,1,0.,24.0,0.,24.0
1979-07-12 01:29:32.310 ,7,0,0.,24.0,0.,24.0
1979-07-12 01:29:56.310 ,7,1,0.,24.0,0.,24.0
1979-07-12 01:30:20.310 ,7,0,0.,24.0,0.,24.0
1979-07-12 01:30:44.310 ,6,1,0.,24.0,0.,24.0
1979-07-12 01:31:08.310 ,6,0,0.,24.0,0.,24.0
1979-07-12 01:31:32.310 ,5,1,0.,24.0,0.,24.0
1979-07-12 01:31:56.310 ,5,0,0.,24.0,0.,24.0
1979-07-12 01:32:20.310 ,4,1,0.,24.0,0.,24.0
1979-07-12 01:32:44.310 ,4,0,0.,24.0,0.,24.0
1979-07-12 01:33:08.310 ,3,1,0.,24.0,0.,24.0
1979-07-12 01:33:32.310 ,3,0,0.,24.0,0.,24.0
1979-07-12 01:33:56.310 ,2,1,0.,24.0,0.,24.0
1979-07-12 01:34:20.310 ,2,0,0.,24.0,0.,24.0
1979-07-12 01:34:44.310 ,1,1,0.,24.0,0.,24.0
1979-07-12 01:35:08.310 ,1,0,0.,24.0,0.,24.0
1979-07-12 01:35:32.310 ,0,1,0.,24.0,0.,24.0
1979-07-12 01:35:56.310 ,0,0,0.,24.0,0.,24.0
1979-07-12 01:36:20.310 ,0,1,0.,24.0,0.,24.0
1979-07-12 01:36:44.310 ,0,0,0.,24.0,0.,24.0
1979-07-12 01:37:08.310 ,1,1,0.,24.0,0.,24.0
1979-07-12 01:37:32.310 ,1,0,0.,24.0,0.,24.0
1979-07-12 01:37:56.310 ,2,1,0.,24.0,0.,24.0
1979-07-12 01:38:20.310 ,2,0,0.,24.0,0.,24.0
1979-07-12 01:38:44.310 ,3,1,0.,24.0,0.,24.0
1979-07-12 01:39:08.310 ,3,0,0.,24.0,0.,24.0
1979-07-12 01:39:32.310 ,4,1,0.,24.0,0.,24.0
1979-07-12 01:39:56.310 ,4,0,0.,24.0,0.,24.0
1979-07-12 01:40:20.310 ,5,1,0.,24.0,0.,24.0
1979-07-12 01:40:44.310 ,5,0,0.,24.0,0.,24.0
1979-07-12 01:41:08.310 ,6,1,0.,24.0,0.,24.0
1979-07-12 01:41:32.310 ,6,0,0.,24.0,0.,24.0
1979-07-12 01:41:56.310 ,7,1,0.,24.0,0.,24.0
1979-07-12 01:42:20.310 ,7,0,0.,24.0,0.,24.0
1979-07-12 01:42:44.310 ,7,1,0.,24.0,0.,24.0
1979-07-12 01:43:08.310 ,7,0,0.,24.0,0.,24.0
1979-07-12 01:43:32.310 ,6,1,0.,24.0,0.,24.0
1979-07-12 01:43:56.310 ,6,0,0.,24.0,0.,24.0
1979-07-12 01:44:20.310 ,5,1,0.,24.0,0.,24.0
1979-07-12 01:44:44.310 ,5,0,0.,24.0,0.,24.0
1979-07-12 01:45:08.310 ,4,1,0.,24.0,0.,24.0
1979-07-12 01:45:32.310 ,4,0,0.,24.0,0.,24.0
1979-07-12 01:45:56.310 ,3,1,0.,24.0,0.,24.0
1979-07-12 01:46:20.310 ,3,0,0.,24.0,0.,24.0
1979-07-12 01:46:44.310 ,2,1,0.,24.0,0.,24.0
1979-07-12 01:47:08.310 ,2,0,0.,24.0,0.,24.0
1979-07-12 01:47:32.310 ,1,1,0.,24.0,0.,24.0
1979-07-12 01:47:56.310 ,1,0,0.,24.0,0.,24.0
1979-07-12 01:48:20.310 ,0,1,0.,24.0,0.,24.0
1979-07-12 01:48:44.310 ,0,0,0.,24.0,0.,24.0
1979-07-12 01:49:08.310 ,0,1,0.,24.0,0.,24.0
1979-07-12 01:49:32.310 ,0,0,0.,24.0,0.,24.0
1979-07-12 01:49:56.310 ,1,1,0.,24.0,0.,24.0
1979-07-12 01:50:20.310 ,1,0,0.,24.0,0.,24.0
1979-07-12 01:50:44.310 ,2,1,0.,24.0,0.,24.0
1979-07-12 01:51:08.310 ,2,0,0.,24.0,0.,24.0
1979-07-12 01:51:32.310 ,3,1,0.,24.0,0.,24.0
1979-07-12 01:51:56.310 ,3,0,0.,24.0,0.,24.0
1979-07-12 01:52:20.310 ,4,1,0.,24.0,0.,24.0
1979-07-12 01:52:44.310 ,4,0,0.,24.0,0.,24.0
1979-07-12 01:53:08.310 ,5,1,0.,24.0,0.,24.0
1979-07-12 01:53:32.310 ,5,0,0.,24.0,0.,24.0
1979-07-12 01:53:56.310 ,6,1,0.,24.0,0.,24.0
1979-07-12 01:54:20.310 ,6,0,0.,24.0,0.,24.0
1979-07-12 01:54:44.310 ,7,0,0.,24.0,0.,24.0
1979-07-12 01:55:08.310 ,7,0,0.,24.0,0.,24.0
1979-07-12 01:55:32.310 ,3,1,0.,24.0,0.,24.0
1979-07-12 01:55:56.310 ,0,1,0.,24.0,0.,24.0
1979-07-12 01:56:20.310 ,4,1,0.,24.0,0.,24.0
1979-07-12 01:56:44.310 ,7,1,0.,24.0,0.,24.0
1979-07-12 01:57:08.310 ,3,1,0.,24.0,0.,24.0
1979-07-12 01:57:32.310 ,0,1,0.,24.0,0.,24.0
1979-07-12 01:57:56.310 ,4,1,0.,24.0,0.,24.0
1979-07-12 01:58:20.310 ,7,1,0.,24.0,0.,24.0
1979-07-12 01:58:44.310 ,3,1,0.,24.0,0.,24.0
1979-07-12 01:59:08.310 ,0,1,0.,24.0,0.,24.0
1979-07-12 01:59:32.310 ,4,1,0.,24.0,0.,24.0
1979-07-12 01:59:56.310 ,7,1,0.,24.0,0.,24.0
1979-07-12 02:00:20.310 ,3,1,0.,24.0,0.,24.0
1979-07-12 02:00:44.310 ,0,1,0.,24.0,0.,24.0
1979-07-12 02:01:08.310 ,4,1,0.,24.0,0.,24.0
1979-07-12 02:01:32.310 ,7,1,0.,24.0,0.,24.0
1979-07-12 02:01:56.310 ,3,1,0.,24.0,0.,24.0
1979-07-12 02:02:20.310 ,0,1,0.,24.0,0.,24.0
1979-07-12 02:02:44.310 ,4,1,0.,24.0,0.,24.0
1979-07-12 02:03:08.310 ,7,1,0.,24.0,0.,24.0
1979-07-12 02:03:32.310 ,3,1,0.,24.0,0.,24.0
1979-07-12 02:03:56.310 ,0,1,0.,24.0,0.,24.0
1979-07-12 02:04:20.310 ,4,1,0.,24.0,0.,24.0
1979-07-12 02:04:44.310 ,7,1,0.,24.0,0.,24.0
1979-07-12 02:05:08.310 ,3,1,0.,24.0,0.,24.0
1979-07-12 02:05:32.310 ,0,1,0.,24.0,0.,24.0
1979-07-12 02:05:56.310 ,0,0,0.,24.0,0.,24.0
1979-07-12 02:06:20.310 ,0,0,0.,24.0,0.,24.0
1979-07-12 02:06:44.310 ,5,1,0.,24.0,0.,24.0
1979-07-12 02:07:08.310 ,5,0,0.,24.0,0.,24.0
1979-07-12 02:07:32.310 ,4,1,0.,24.0,0.,24.0
1979-07-12 02:07:56.310 ,4,0,0.,24.0,0.,24.0
1979-07-12 02:08:20.310 ,3,1,0.,24.0,0.,24.0
1979-07-12 02:08:44.310 ,0,0,0.,24.0,0.,24.0
1979-07-12 02:09:58.110 ,0,0,0.,24.0,0.,24.0
1979-07-12 02:10:20.310 ,0,0,0.,24.0,0.,24.0
1979-07-12 02:10:44.310 ,0,1,0.,24.0,0.,24.0
1979-07-12 02:11:08.310 ,0,0,0.,24.0,0.,24.0
1979-07-12 02:11:32.310 ,0,1,0.,24.0,0.,24.0
1979-07-12 02:11:56.310 ,0,0,0.,24.0,0.,24.0
1979-07-12 02:12:20.310 ,1,1,0.,24.0,0.,24.0
1979-07-12 02:12:44.310 ,1,0,0.,24.0,0.,24.0
1979-07-12 02:13:08.310 ,2,1,2.,24.0,0.,24.0
1979-07-12 02:13:32.310 ,2,0,0.,24.0,0.,24.0
1979-07-12 02:13:56.310 ,3,1,0.,24.0,0.,24.0
1979-07-12 02:14:20.310 ,3,0,0.,24.0,0.,24.0
1979-07-12 02:14:44.310 ,4,1,0.,24.0,0.,24.0
1979-07-12 02:15:08.310 ,0,0,,0,,0
1979-07-12 02:15:08.310 ,4,0,0.,24.0,0.,24.0
1979-07-12 02:15:32.310 ,5,1,0.,24.0,0.,24.0
1979-07-12 02:15:56.310 ,5,0,0.,24.0,0.,24.0
1979-07-12 02:16:20.310 ,6,1,0.,24.0,0.,24.0
1979-07-12 02:16:44.310 ,6,0,0.,24.0,0.,24.0
1979-07-12 02:17:08.310 ,7,1,0.,24.0,0.,24.0
1979-07-12 02:17:32.310 ,7,0,0.,24.0,0.,24.0
1979-07-12 02:17:56.310 ,7,1,0.,24.0,0.,24.0
1979-07-12 02:18:20.310 ,7,0,0.,24.0,0.,24.0
1979-07-12 02:18:44.310 ,6,1,0.,24.0,0.,24.0
1979-07-12 02:19:08.310 ,6,0,0.,24.0,0.,24.0
1979-07-12 02:19:32.310 ,5,1,0.,24.0,0.,24.0
1979-07-12 02:19:56.310 ,5,0,0.,24.0,0.,24.0
1979-07-12 02:20:20.310 ,4,1,0.,24.0,0.,24.0
1979-07-12 02:20:44.310 ,4,0,0.,24.0,0.,24.0
1979-07-12 02:21:08.310 ,3,1,0.,24.0,0.,24.0
1979-07-12 02:21:32.310 ,3,0,0.,24.0,0.,24.0
1979-07-12 02:21:56.310 ,2,1,0.,24.0,0.,24.0
1979-07-12 02:22:20.310 ,2,0,0.,24.0,0.,24.0
1979-07-12 02:22:44.310 ,1,1,0.,24.0,0.,24.0
1979-07-12 02:23:08.310 ,1,0,0.,24.0,0.,24.0
1979-07-12 02:23:32.310 ,0,1,0.,24.0,0.,24.0
1979-07-12 02:23:56.310 ,0,0,0.,24.0,0.,24.0
1979-07-12 02:24:20.310 ,0,1,0.,24.0,0.,24.0
1979-07-12 02:24:44.310 ,0,0,0.,24.0,0.,24.0
1979-07-12 02:25:08.310 ,1,1,0.,24.0,0.,24.0
1979-07-12 02:25:32.310 ,1,0,0.,24.0,0.,24.0
1979-07-12 02:25:56.310 ,2,1,0.,24.0,0.,24.0
1979-07-12 02:26:20.310 ,2,0,0.,24.0,0.,24.0
1979-07-12 02:26:44.310 ,3,1,0.,24.0,0.,24.0
1979-07-12 02:27:08.310 ,3,0,0.,24.0,0.,24.0
1979-07-12 02:27:32.310 ,4,1,0.,24.0,0.,24.0
1979-07-12 02:27:56.310 ,4,0,0.,24.0,0.,24.0
1979-07-12 02:28:20.310 ,5,1,0.,24.0,0.,24.0
1979-07-12 02:28:44.310 ,5,0,0.,24.0,0.,24.0
1979-07-12 02:29:08.310 ,6,1,0.,24.0,0.,24.0
1979-07-12 02:29:32.310 ,6,0,0.,24.0,0.,24.0
1979-07-12 02:29:56.310 ,7,1,0.,24.0,0.,24.0
1979-07-12 02:30:20.310 ,7,0,1.,24.0,0.,24.0
1979-07-12 02:30:44.310 ,7,1,0.,24.0,0.,24.0
1979-07-12 02:31:08.310 ,7,0,0.,24.0,0.,24.0
1979-07-12 02:31:32.310 ,6,1,0.,24.0,0.,24.0
1979-07-12 02:31:56.310 ,6,0,0.,24.0,0.,24.0
1979-07-12 02:32:20.310 ,5,1,0.,24.0,0.,24.0
1979-07-12 02:32:44.310 ,5,0,0.,24.0,0.,24.0
1979-07-12 02:33:08.310 ,4,1,0.,24.0,0.,24.0
1979-07-12 02:33:32.310 ,4,0,1.,24.0,0.,24.0
1979-07-12 02:33:56.310 ,3,1,0.,24.0,0.,24.0
1979-07-12 02:34:20.310 ,3,0,0.,24.0,0.,24.0
1979-07-12 02:34:44.310 ,2,1,0.,24.0,0.,24.0
1979-07-12 02:35:08.310 ,2,0,0.,24.0,0.,24.0
1979-07-12 02:35:32.310 ,1,1,0.,24.0,0.,24.0
1979-07-12 02:35:56.310 ,1,0,0.,24.0,0.,24.0
1979-07-12 02:36:20.310 ,0,1,0.,24.0,0.,24.0
1979-07-12 02:36:44.310 ,0,0,0.,24.0,0.,24.0
1979-07-12 02:37:08.310 ,0,1,0.,24.0,0.,24.0
1979-07-12 02:37:32.310 ,0,0,0.,24.0,0.,24.0
1979-07-12 02:37:56.310 ,1,1,0.,24.0,0.,24.0
1979-07-12 02:38:20.310 ,1,0,0.,24.0,0.,24.0
1979-07-12 02:38:44.300 ,2,1,1.,24.0,0.,24.0
1979-07-12 02:39:08.300 ,0,0,,0,,0
1979-07-12 02:39:23.300 ,0,0,,0,,0
1979-07-12 02:39:23.300 ,0,0,,0,,0
1979-07-12 02:39:23.900 ,0,0,0.,24.0,0.,24.0
1979-07-12 02:39:32.300 ,3,1,0.,24.0,0.,24.0
1979-07-12 02:39:56.300 ,3,0,2.,24.0,0.,24.0
1979-07-12 02:40:20.300 ,4,1,0.,24.0,0.,24.0
1979-07-12 02:40:44.300 ,4,0,0.,24.0,0.,24.0
1979-07-12 02:41:08.300 ,5,1,0.,24.0,0.,24.0
1979-07-12 02:41:32.300 ,5,0,0.,24.0,0.,24.0
1979-07-12 02:41:56.300 ,6,1,0.,24.0,0.,24.0
1979-07-12 02:42:20.300 ,6,0,0.,24.0,0.,24.0
1979-07-12 02:42:44.300 ,7,0,0.,24.0,0.,24.0
1979-07-12 02:43:08.300 ,7,0,0.,24.0,0.,24.0
1979-07-12 02:43:32.300 ,3,1,0.,24.0,0.,24.0
1979-07-12 02:43:56.300 ,0,1,0.,24.0,0.,24.0
1979-07-12 02:44:20.300 ,4,1,0.,24.0,0.,24.0
1979-07-12 02:44:44.300 ,7,1,0.,24.0,0.,24.0
1979-07-12 02:45:08.300 ,3,1,0.,24.0,0.,24.0
1979-07-12 02:45:32.300 ,0,1,0.,24.0,0.,24.0
1979-07-12 02:45:56.300 ,4,1,0.,24.0,0.,24.0
1979-07-12 02:46:20.300 ,7,1,0.,24.0,0.,24.0
1979-07-12 02:46:44.300 ,3,1,0.,24.0,0.,24.0
1979-07-12 02:47:08.300 ,0,1,0.,24.0,0.,24.0
1979-07-12 02:47:32.300 ,4,1,0.,24.0,0.,24.0
1979-07-12 02:47:56.300 ,7,1,0.,24.0,0.,24.0
1979-07-12 02:48:20.300 ,3,1,0.,24.0,0.,24.0
1979-07-12 02:48:44.300 ,0,1,0.,24.0,0.,24.0
1979-07-12 02:49:08.300 ,4,1,0.,24.0,0.,24.0
1979-07-12 02:49:32.300 ,7,1,0.,24.0,0.,24.0
1979-07-12 02:49:56.300 ,3,1,0.,24.0,0.,24.0
1979-07-12 02:50:20.300 ,0,1,0.,24.0,0.,24.0
1979-07-12 02:50:44.300 ,4,1,0.,24.0,0.,24.0
1979-07-12 02:51:08.300 ,7,1,0.,24.0,0.,24.0
1979-07-12 02:51:32.300 ,3,1,1.,24.0,0.,24.0
1979-07-12 02:51:56.300 ,0,1,0.,24.0,0.,24.0
1979-07-12 02:52:20.300 ,4,1,0.,24.0,0.,24.0
1979-07-12 02:52:44.300 ,7,1,0.,24.0,0.,24.0
1979-07-12 02:53:08.300 ,3,1,0.,24.0,0.,24.0
1979-07-12 02:53:32.300 ,0,1,0.,24.0,0.,24.0
1979-07-12 02:53:56.300 ,0,0,0.,24.0,0.,24.0
1979-07-12 02:54:20.300 ,0,0,0.,24.0,0.,24.0
1979-07-12 02:54:44.300 ,5,1,0.,24.0,0.,24.0
1979-07-12 02:55:08.300 ,5,0,0.,24.0,0.,24.0
1979-07-12 02:55:32.300 ,4,1,0.,24.0,0.,24.0
1979-07-12 02:55:56.300 ,4,0,0.,24.0,0.,24.0
1979-07-12 02:56:20.300 ,3,1,0.,24.0,0.,24.0
1979-07-12 02:56:44.300 ,3,0,1.,24.0,0.,24.0
1979-07-12 02:57:08.300 ,2,1,0.,24.0,0.,24.0
1979-07-12 02:57:32.300 ,2,0,0.,24.0,0.,24.0
1979-07-12 02:57:56.300 ,1,1,0.,24.0,0.,24.0
1979-07-12 02:58:20.300 ,1,0,0.,24.0,0.,24.0
1979-07-12 02:58:44.300 ,0,1,0.,24.0,0.,24.0
1979-07-12 02:59:08.300 ,0,0,0.,24.0,0.,24.0
1979-07-12 02:59:32.300 ,0,1,0.,24.0,0.,24.0
1979-07-12 02:59:56.300 ,0,0,0.,24.0,0.,24.0
1979-07-12 03:00:20.310 ,1,1,0.,24.0,0.,24.0
